Weather History for North Island, CA

Change the Weather History Date:

Monday, October 7, 2013

  Actual Average Record
Temperature  
Mean Temperature 74 °F -  
Max Temperature 84 °F 70 °F 95 °F (2008)
Min Temperature 66 °F 59 °F 37 °F (1996)
Cooling Degree Days 9    
Growing Degree Days 24 (Base 50)    
Moisture  
Dew Point 54 °F    
Average Humidity 56    
Maximum Humidity 75    
Minimum Humidity 16    
Precipitation  
Precipitation 0.00 in - - ()
Sea Level Pressure  
Sea Level Pressure 29.94 in    
Wind  
Wind Speed 3 mph (WNW)    
Max Wind Speed 13 mph    
Max Gust Speed -    
Visibility 10 miles    
Events      
Averages and records for this station are not official NWS values.
T = Trace of Precipitation, MM = Missing Value Source: NWS Daily Summary

Daily Weather History Graph

Daily Weather History Graph

Search for Another Location

Airport:

Trip Planner

Search our weather history database for the weather conditions in past years. The results will help you decide how hot, cold, wet, or windy it might be!

Date:

Astronomy

Oct. 07, 2013 Rise Set
Actual Time 6:47 AM PDT 6:25 PM PDT
Civil Twilight 6:22 AM PDT 6:49 PM PDT
Nautical Twilight 5:54 AM PDT 7:18 PM PDT
Astronomical Twilight 5:25 AM PDT 7:46 PM PDT
Moon 9:31 AM PDT (10/7) 8:24 PM PDT (10/7)
Length of Visible Light 12h 27m
Length of Day
11h 37m
Waxing Crescent, 9% of the Moon is Illuminated
Oct 7
Waxing Crescent
Oct 11
First Quarter
Oct 18
Full
Oct 26
Last Quarter
Nov 3
New

Hourly Weather History & Observations

Time (PDT) Temp. Heat Index Dew Point Humidity Pressure Visibility Wind Dir Wind Speed Gust Speed Precip Events Conditions
12:52 AM 69.1 °F - 57.0 °F 65% 29.95 in 10.0 mi Calm Calm - N/A   Mostly Cloudy
1:52 AM 68.0 °F - 54.0 °F 61% 29.94 in 10.0 mi Calm Calm - N/A   Mostly Cloudy
2:52 AM 66.9 °F - 55.0 °F 66% 29.93 in 10.0 mi Calm Calm - N/A   Mostly Cloudy
3:52 AM 66.0 °F - 52.0 °F 60% 29.93 in 10.0 mi Calm Calm - N/A   Mostly Cloudy
4:52 AM 66.9 °F - 52.0 °F 59% 29.92 in 10.0 mi Calm Calm - N/A   Mostly Cloudy
5:52 AM 66.0 °F - 46.9 °F 50% 29.94 in 10.0 mi Calm Calm - N/A   Mostly Cloudy
6:52 AM 66.0 °F - 53.1 °F 63% 29.94 in 10.0 mi West 3.5 mph - N/A   Mostly Cloudy
7:52 AM 66.0 °F - 48.0 °F 52% 29.97 in 10.0 mi Calm Calm - N/A   Mostly Cloudy
8:52 AM 75.9 °F - 45.0 °F 33% 29.97 in 10.0 mi East 3.5 mph - N/A   Mostly Cloudy
9:52 AM 79.0 °F - 39.9 °F 25% 29.96 in 10.0 mi South 4.6 mph - N/A   Mostly Cloudy
10:52 AM 82.0 °F - 32.0 °F 16% 29.95 in 10.0 mi SW 10.4 mph - N/A   Mostly Cloudy
11:52 AM 80.1 °F - 51.1 °F 36% 29.95 in 10.0 mi West 5.8 mph - N/A   Mostly Cloudy
12:52 PM 81.0 °F 81.1 °F 57.9 °F 45% 29.95 in 10.0 mi WNW 12.7 mph - N/A   Scattered Clouds
1:52 PM 81.0 °F 81.1 °F 57.9 °F 45% 29.93 in 10.0 mi West 6.9 mph - N/A   Scattered Clouds
2:52 PM 80.1 °F 80.6 °F 57.9 °F 47% 29.92 in 10.0 mi WNW 9.2 mph - N/A   Scattered Clouds
3:52 PM 81.0 °F 81.1 °F 57.9 °F 45% 29.91 in 10.0 mi West 6.9 mph - N/A   Scattered Clouds
4:52 PM 77.0 °F - 61.0 °F 58% 29.91 in 10.0 mi WNW 8.1 mph - N/A   Scattered Clouds
5:52 PM 75.0 °F - 59.0 °F 57% 29.92 in 10.0 mi West 6.9 mph - N/A   Scattered Clouds
6:52 PM 72.0 °F - 61.0 °F 68% 29.92 in 10.0 mi NW 6.9 mph - N/A   Partly Cloudy
7:52 PM 70.0 °F - 61.0 °F 73% 29.93 in 10.0 mi West 5.8 mph - N/A   Partly Cloudy
8:52 PM 69.1 °F - 61.0 °F 75% 29.93 in 9.0 mi WNW 5.8 mph - N/A   Partly Cloudy
9:52 PM 69.1 °F - 61.0 °F 75% 29.94 in 9.0 mi WNW 4.6 mph - N/A   Partly Cloudy
10:34 PM 69.8 °F - 60.8 °F 73% 29.94 in 8.0 mi WNW 3.5 mph - N/A   Partly Cloudy
10:52 PM 69.1 °F - 61.0 °F 75% 29.94 in 8.0 mi NW 3.5 mph - N/A   Partly Cloudy
11:52 PM 68.0 °F - 59.0 °F 73% 29.94 in 8.0 mi Calm Calm - N/A   Partly Cloudy